Regional Weather Roundup
Issued by NWS Cleveland, OH

Home | Current Version | Previous Version | Text Only | Print | Product List | Glossary Off
Versions: 1 2 3 4 5 6 7 8 9 10 11 12 13 14 15 16 17 18 19 20 21 22 23 24 25 26 27 28 29 30 31 32 33 34 35 36 37 38 39 40 41 42 43 44 45 46 47 48 49 50

000
ASUS41 KCLE 051410
RWRCLE
OHIO REGIONAL WEATHER ROUNDUP
NATIONAL WEATHER SERVICE CLEVELAND, OH
1000 AM EDT TUE MAY 05 2015

NOTE: "FAIR" INDICATES FEW OR NO CLOUDS BELOW 12,000 FEET WITH NO
SIGNIFICANT WEATHER AND/OR OBSTRUCTIONS TO VISIBILITY.

OHZ001>008-015>018-024>027-034-035-043-044-051500-
   NORTHWEST OHIO

CITY           SKY/WX    TMP DP  RH WIND       PRES   REMARKS
DEFIANCE       RAIN      59  57  93 NE6       30.27R FOG
FINDLAY        LGT RAIN  63  60  90 CALM      30.25S FOG
TOLEDO EXPRESS LGT RAIN  56  43  61 E9        30.28R
TOLEDO EXEC    LGT RAIN  55  43  63 NE7       30.28S
LIMA           CLOUDY    63  61  93 CALM      30.26R FOG
$$

OHZ009>014-019>023-028>033-038-089-051500-
   NORTHEAST OHIO

CITY           SKY/WX    TMP DP  RH WIND       PRES   REMARKS
CLE-HOPKINS    CLOUDY    63  59  87 CALM      30.28F FOG
CLE-LAKEFRONT  LGT RAIN  55  53  93 S3        30.26S FOG
CUY CO. ARPT   LGT RAIN  63  61  94 S6        30.27S FOG
LORAIN-ELYRIA  CLOUDY    64  59  83 SW5       30.26F HAZE
ASHTABULA      CLOUDY    61  59  93 S5        30.28S FOG
AKRON-CANTON   CLOUDY    63  60  90 SW7       30.29R FOG
WOOSTER        CLOUDY    65  59  81 W3        30.28F
MANSFIELD      LGT RAIN  63  60  90 SW10      30.28S
YOUNGSTOWN     LGT RAIN  60  59  96 S3        30.28S VSB 3/4
$$

OHZ042-051>053-060>062-070>072-077>081-051500-
  SOUTHWEST OHIO

CITY           SKY/WX    TMP DP  RH WIND       PRES   REMARKS
CINC-COVINGTON MOSUNNY   72  58  61 SW3       30.27S
CINC-LUNKEN    SUNNY     70  62  76 CALM      30.27F
HAMILTON       SUNNY     72  60  66 SE3       30.28S
DAYTON         MOSUNNY   69  63  81 SE9       30.28F
WRIGHT-PAT AFB MOSUNNY   68  63  83 SE7       30.28S
DAYTON GENERAL PTSUNNY   69  60  73 SE3       30.27S
WILMINGTON     SUNNY     70  59  68 S8        30.28S
$$

OHZ036-037-039>041-045>050-054>059-063>069-073>076-082>088-051500-
  CENTRAL AND SOUTHEAST OHIO

CITY           SKY/WX    TMP DP  RH WIND       PRES   REMARKS
COLUMBUS       PTSUNNY   66  61  84 N5        30.29R
OSU AIRPORT    PTSUNNY   64  59  83 CALM      30.29R
BOLTON FIELD   PTSUNNY   66  61  82 CALM      30.30R
RICKENBACK AFB PTSUNNY   67  60  76 CALM      30.28S
NEWARK         PTSUNNY   66  59  78 NW5       30.29R
MARION         CLOUDY    62  60  93 S3        30.27F FOG
LANCASTER      PTSUNNY   69  60  73 CALM      30.30R
ZANESVILLE     CLOUDY    65  59  81 W6        30.29S
NEW PHILLY     PTSUNNY   67  62  84 CALM      30.29S HAZE
$$



USA.gov is the U.S. government's official web portal to all federal, state and local government web resources and services.